Lima, OH

10:39 AM EST on February 23, 2017 (GMT -0500)
Lima Allen County

Weather History for KAOH - March, 2014

Change the Weather History Date:

Wednesday, March 5, 2014

  Actual Average (KFDY) Record (KFDY)
Temperature  
Mean Temperature 18 °F -  
Max Temperature 24 °F 42 °F 77 °F (1983)
Min Temperature 12 °F 26 °F -2 °F (1978)
Degree Days  
Heating Degree Days 47    
Moisture  
Dew Point 10 °F    
Average Humidity 68    
Maximum Humidity 77    
Minimum Humidity 55    
Precipitation  
Precipitation 0.00 in - - ()
Sea Level Pressure  
Sea Level Pressure 30.37 in    
Wind  
Wind Speed 8 mph (NE)    
Max Wind Speed 21 mph    
Max Gust Speed 26 mph    
Visibility 9 miles    
Events Snow    
Averages and records for this station are not official NWS values.
T = Trace of Precipitation, MM = Missing Value Source: NWS Daily Summary

Daily Weather History Graph

Daily Weather History Graph

Search for Another Location

Airport or City:

Trip Planner

Search our weather history database for the weather conditions in past years. The results will help you decide how hot, cold, wet, or windy it might be!

Date:

Astronomy

Mar. 05, 2014 Rise Set
Actual Time 7:03 AM EST 6:31 PM EST
Civil Twilight 6:36 AM EST 6:59 PM EST
Nautical Twilight 6:04 AM EST 7:31 PM EST
Astronomical Twilight 5:33 AM EST 8:02 PM EST
Moon 9:27 AM EST (3/5) 11:41 PM EST (3/5)
Length of Visible Light 12h 22m
Length of Day
11h 28m
Waxing Crescent, 23% of the Moon is Illuminated
Mar 5
Waxing Crescent
Mar 8
First Quarter
Mar 16
Full
Mar 23
Last Quarter
Mar 30
New

Hourly Weather History & Observations

Time (EST) Temp. Windchill Dew Point Humidity Pressure Visibility Wind Dir Wind Speed Gust Speed Precip Events Conditions
12:53 AM 15.1 °F - 7.0 °F 70% 30.26 in 10.0 mi Calm Calm - N/A   Clear
1:53 AM 12.9 °F - 7.0 °F 77% 30.27 in 8.0 mi Calm Calm - N/A   Clear
2:53 AM 12.0 °F 4.1 °F 6.1 °F 77% 30.24 in 7.0 mi East 4.6 mph - N/A   Clear
3:53 AM 12.0 °F 5.9 °F 6.1 °F 77% 30.27 in 7.0 mi NNE 3.5 mph - N/A   Clear
4:53 AM 12.9 °F 6.9 °F 6.1 °F 74% 30.28 in 8.0 mi ENE 3.5 mph - N/A   Scattered Clouds
5:53 AM 12.0 °F 5.9 °F 6.1 °F 77% 30.30 in 8.0 mi NE 3.5 mph - N/A   Clear
6:53 AM 12.0 °F 5.9 °F 5.0 °F 73% 30.33 in 7.0 mi North 3.5 mph - N/A   Scattered Clouds
7:53 AM 15.1 °F 7.7 °F 7.0 °F 70% 30.35 in 7.0 mi North 4.6 mph - N/A   Scattered Clouds
8:53 AM 19.0 °F 8.2 °F 9.0 °F 65% 30.36 in 9.0 mi ENE 9.2 mph - N/A   Overcast
9:53 AM 21.0 °F 8.1 °F 7.0 °F 55% 30.38 in 10.0 mi NE 13.8 mph - N/A   Overcast
10:53 AM 21.9 °F 8.7 °F 8.1 °F 55% 30.40 in 10.0 mi NE 15.0 mph - N/A   Overcast
11:53 AM 21.9 °F 11.0 °F 12.0 °F 66% 30.40 in 9.0 mi ENE 10.4 mph - 0.00 in   Overcast
12:53 PM 23.0 °F 12.4 °F 14.0 °F 68% 30.40 in 2.5 mi NE 10.4 mph - 0.00 in Snow Light Snow
1:06 PM 23.0 °F 11.7 °F 14.0 °F 68% 30.34 in 4.0 mi ENE 11.5 mph - 0.00 in Snow Light Snow
1:53 PM 23.0 °F 10.1 °F 15.1 °F 72% 30.39 in 7.0 mi NE 15.0 mph - 0.00 in   Overcast
2:53 PM 23.0 °F 11.1 °F 14.0 °F 68% 30.39 in 8.0 mi ENE 12.7 mph - 0.00 in   Overcast
3:30 PM 24.1 °F 11.5 °F 15.1 °F 69% 30.34 in 10.0 mi NE 15.0 mph - N/A   Overcast
3:50 PM 23.0 °F 10.1 °F 14.0 °F 68% 30.35 in 10.0 mi NE 15.0 mph - N/A   Overcast
3:53 PM 23.0 °F 10.6 °F 14.0 °F 68% 30.40 in 10.0 mi NE 13.8 mph - N/A   Overcast
4:53 PM 23.0 °F 9.6 °F 12.9 °F 65% 30.42 in 10.0 mi NE 16.1 mph - N/A   Overcast
5:53 PM 21.9 °F 9.8 °F 12.0 °F 66% 30.43 in 10.0 mi NE 12.7 mph 23.0 mph N/A   Overcast
6:03 PM 21.9 °F 8.2 °F 12.0 °F 66% 30.38 in 10.0 mi ENE 16.1 mph 21.9 mph N/A   Overcast
6:12 PM 21.9 °F 11.0 °F 10.9 °F 63% 30.38 in 10.0 mi NE 10.4 mph - N/A   Mostly Cloudy
6:53 PM 21.0 °F 6.2 °F 10.9 °F 65% 30.45 in 10.0 mi NE 18.4 mph 25.3 mph N/A   Mostly Cloudy
7:53 PM 19.9 °F 3.9 °F 9.0 °F 62% 30.46 in 10.0 mi ENE 20.7 mph 26.5 mph N/A   Overcast
8:53 PM 19.0 °F 5.0 °F 9.0 °F 65% 30.45 in 10.0 mi ENE 15.0 mph 21.9 mph N/A   Clear
9:53 PM 18.0 °F 3.1 °F 8.1 °F 65% 30.45 in 10.0 mi ENE 16.1 mph - N/A   Clear
10:53 PM 18.0 °F 3.6 °F 8.1 °F 65% 30.45 in 10.0 mi ENE 15.0 mph - N/A   Clear
11:53 PM 17.1 °F 3.6 °F 8.1 °F 68% 30.44 in 10.0 mi ENE 12.7 mph - N/A   Clear